This is the latest recevied weather packets stored in our database for station/object NorthRyde. If no packets are shown the sender has not sent any weather packets the latest 10 day(s).
| Time | Temp. | Humidity | Pressure | Rain* | Wind** | Luminosity | Snow |
|---|---|---|---|---|---|---|---|
| 1778371724 | 17.22° C | 69% | 1030 hPa | 0 mm | - | 483 W/m² | - |
| 1778371663 | 17.78° C | 69% | 1030.1 hPa | 0 mm | - | 483 W/m² | - |
| 1778371638 | 17.78° C | 69% | 1029.9 hPa | 0 mm | - | 482 W/m² | - |
| 1778371618 | 17.78° C | 71% | 1030 hPa | 0 mm | - | 480 W/m² | - |
| 1778371592 | 17.22° C | 71% | 1030 hPa | 0 mm | - | 476 W/m² | - |
| 1778371416 | 17.22° C | 71% | 1030 hPa | 0 mm | - | 473 W/m² | - |
| 1778371358 | 17.22° C | 71% | 1030 hPa | 0 mm | - | 475 W/m² | - |
| 1778371292 | 17.22° C | 70% | 1030 hPa | 0 mm | - | 473 W/m² | - |
| 1778371232 | 17.22° C | 70% | 1030 hPa | 0 mm | - | 473 W/m² | - |
| 1778371194 | 17.22° C | 71% | 1030 hPa | 0 mm | - | 468 W/m² | - |
| 1778371112 | 17.22° C | 71% | 1029.9 hPa | 0 mm | - | 468 W/m² | - |
| 1778371053 | 17.22° C | 71% | 1030 hPa | 0 mm | - | 466 W/m² | - |
| 1778370991 | 17.22° C | 71% | 1029.9 hPa | 0 mm | - | 462 W/m² | - |
| 1778370931 | 17.22° C | 72% | 1030 hPa | 0 mm | - | 462 W/m² | - |
| 1778370872 | 17.22° C | 72% | 1030 hPa | 0 mm | - | 461 W/m² | - |
| 1778370811 | 17.22° C | 72% | 1029.9 hPa | 0 mm | - | 459 W/m² | - |
| 1778370751 | 16.67° C | 72% | 1029.9 hPa | 0 mm | - | 455 W/m² | - |
| 1778370700 | 16.67° C | 72% | 1030 hPa | 0 mm | - | 452 W/m² | - |
| 1778370677 | 16.67° C | 73% | 1029.9 hPa | 0 mm | - | 452 W/m² | - |
| 1778370647 | 16.67° C | 73% | 1029.9 hPa | 0 mm | - | 450 W/m² | - |
| 1778370614 | 16.67° C | 73% | 1029.8 hPa | 0 mm | - | 446 W/m² | - |
| 1778370462 | 16.67° C | 73% | 1029.9 hPa | 0 mm | - | 445 W/m² | - |
| 1778370436 | 16.67° C | 74% | 1029.9 hPa | 0 mm | - | 445 W/m² | - |
| 1778370417 | 16.11° C | 74% | 1030 hPa | 0 mm | - | 443 W/m² | - |
| 1778370388 | 16.11° C | 74% | 1030 hPa | 0 mm | - | 441 W/m² | - |
* Rain latest hour (hover to see other rain measurements)
** Current wind speed in m/s (hover to see current wind gust speed)